QPF
0.00 0.00 0.00 0.00 0.00 0.00 0.00 0.00 0.00 0.00 0.00 0.00 0.00 0.00 0.00 0.00 0.00 0.00 0.00 0.00 0.00 0.00 0.00 0.00 0.00 0.00 0.00 0.02 0.06 0.13 0.22 0.16 0.06 0.02 0.00 0.00 0.01 0.03 0.02 0.00 0.00 0.00 0.00 0.00
0.00 0.00 0.00 0.00 0.00 0.00 0.00 0.00 0.00 0.00 0.00 0.00 0.00 0.00 0.00 0.00 0.00 0.00 0.00 0.00 0.00 0.00 0.00 0.00 0.00 0.00 0.00 0.00 0.04 0.07 0.12 0.13 0.11 0.06 0.00 0.00 0.01 0.06 0.01 0.00 0.00 0.00 0.00 0.00
0.00 0.00 0.00 0.00 0.00 0.00 0.00 0.00 0.00 0.00 0.00 0.00 0.00 0.00 0.00 0.00 0.00 0.00 0.00 0.00 0.00 0.00 0.00 0.00 0.00 0.00 0.00 0.00 0.05 0.15 0.11 0.11 0.09 0.06 0.02 0.00 0.00 0.01 0.00 0.00 0.00 0.00 0.00 0.00
0.00 0.00 0.00 0.00 0.00 0.00 0.00 0.00 0.00 0.00 0.00 0.00 0.00 0.00 0.00 0.00 0.00 0.00 0.00 0.00 0.00 0.00 0.00 0.00 0.00 0.00 0.00 0.00 0.06 0.09 0.21 0.18 0.19 0.12 0.12 0.04 0.00 0.00 0.01 0.01 0.00 0.00 0.00 0.00
0.00 0.00 0.00 0.00 0.00 0.00 0.00 0.00 0.00 0.00 0.00 0.00 0.00 0.00 0.00 0.00 0.00 0.00 0.00 0.00 0.00 0.00 0.00 0.00 0.00 0.00 0.00 0.00 0.05 0.12 0.12 0.13 0.16 0.14 0.19 0.04 0.00 0.00 0.02 0.06 0.02 0.00 0.00 0.00
0.00 0.00 0.00 0.00 0.00 0.00 0.00 0.00 0.00 0.00 0.00 0.00 0.00 0.00 0.00 0.00 0.00 0.01 0.01 0.00 0.00 0.00 0.00 0.01 0.03 0.00 0.00 0.01 0.04 0.07 0.04 0.04 0.07 0.12 0.10 0.04 0.02 0.01 0.01 0.01 0.02 0.01 0.00 0.00
0.00 0.00 0.00 0.00 0.00 0.00 0.00 0.00 0.00 0.00 0.00 0.00 0.00 0.00 0.00 0.00 0.00 0.01 0.01 0.00 0.00 0.00 0.00 0.05 0.11 0.03 0.04 0.06 0.05 0.02 0.01 0.01 0.04 0.03 0.03 0.06 0.04 0.01 0.00 0.00 0.00 0.00 0.00 0.00
0.00 0.00 0.00 0.00 0.00 0.00 0.00 0.00 0.00 0.00 0.00 0.00 0.00 0.00 0.00 0.00 0.00 0.00 0.02 0.01 0.00 0.03 0.01 0.05 0.27 0.13 0.03 0.01 0.01 0.01 0.01 0.02 0.03 0.02 0.04 0.04 0.01 0.00 0.00 0.00 0.00 0.00 0.00 0.00
0.00 0.00 0.00 0.00 0.00 0.00 0.00 0.00 0.00 0.00 0.00 0.00 0.00 0.00 0.00 0.00 0.00 0.00 0.01 0.03 0.01 0.02 0.05 0.05 0.03 0.01 0.01 0.01 0.00 0.00 0.01 0.01 0.02 0.02 0.00 0.01 0.00 0.00 0.00 0.00 0.00 0.00 0.00 0.00
0.00 0.00 0.00 0.00 0.00 0.00 0.00 0.00 0.00 0.00 0.00 0.00 0.00 0.00 0.00 0.00 0.00 0.00 0.00 0.01 0.04 0.04 0.11 0.07 0.03 0.03 0.02 0.02 0.02 0.01 0.00 0.00 0.00 0.01 0.00 0.00 0.00 0.00 0.00 0.00 0.00 0.00 0.00 0.00
0.00 0.00 0.00 0.00 0.00 0.00 0.00 0.00 0.00 0.00 0.00 0.00 0.00 0.00 0.00 0.00 0.00 0.00 0.00 0.00 0.02 0.07 0.05 0.04 0.06 0.06 0.03 0.01 0.01 0.01 0.01 0.00 0.00 0.00 0.00 0.00 0.00 0.00 0.00 0.00 0.00 0.00 0.00 0.00
0.00 0.00 0.00 0.00 0.00 0.00 0.00 0.00 0.00 0.00 0.00 0.00 0.00 0.00 0.00 0.00 0.00 0.00 0.00 0.00 0.00 0.04 0.07 0.04 0.04 0.04 0.04 0.02 0.00 0.00 0.00 0.00 0.00 0.00 0.00 0.00 0.00 0.00 0.00 0.00 0.00 0.00 0.00 0.00
0.00 0.00 0.00 0.00 0.00 0.00 0.00 0.00 0.00 0.00 0.00 0.00 0.00 0.00 0.00 0.00 0.00 0.00 0.00 0.00 0.00 0.00 0.01 0.03 0.04 0.05 0.05 0.02 0.01 0.00 0.00 0.00 0.00 0.00 0.00 0.00 0.00 0.00 0.00 0.00 0.00 0.00 0.00 0.00
0.00 0.00 0.00 0.00 0.00 0.00 0.00 0.00 0.00 0.00 0.00 0.00 0.00 0.00 0.00 0.00 0.00 0.00 0.00 0.00 0.00 0.00 0.00 0.00 0.00 0.00 0.00 0.00 0.00 0.00 0.00 0.00 0.00 0.00 0.00 0.00 0.00 0.00 0.00 0.00 0.00 0.00 0.00 0.00
0.00 0.00 0.00 0.00 0.00 0.00 0.00 0.00 0.00 0.00 0.00 0.00 0.00 0.00 0.00 0.00 0.00 0.00 0.00 0.00 0.00 0.00 0.00 0.00 0.00 0.00 0.00 0.00 0.00 0.00 0.00 0.00 0.00 0.00 0.00 0.00 0.00 0.00 0.00 0.00 0.00 0.00 0.00 0.00
0.00 0.00 0.00 0.00 0.00 0.00 0.00 0.00 0.00 0.00 0.00 0.00 0.00 0.00 0.00 0.00 0.00 0.00 0.00 0.00 0.00 0.00 0.00 0.00 0.00 0.00 0.00 0.00 0.00 0.00 0.00 0.00 0.00 0.00 0.00 0.00 0.00 0.00 0.00 0.00 0.00 0.00 0.00 0.00
0.00 0.00 0.00 0.00 0.00 0.00 0.00 0.00 0.00 0.00 0.00 0.00 0.00 0.00 0.00 0.00 0.00 0.00 0.00 0.00 0.00 0.00 0.00 0.00 0.00 0.00 0.00 0.00 0.00 0.00 0.00 0.00 0.00 0.00 0.00 0.00 0.00 0.00 0.00 0.00 0.00 0.00 0.00 0.00
0.00 0.00 0.00 0.00 0.00 0.00 0.00 0.00 0.00 0.00 0.00 0.00 0.00 0.00 0.00 0.00 0.00 0.00 0.00 0.00 0.00 0.00 0.00 0.00 0.00 0.00 0.00 0.00 0.00 0.00 0.00 0.00 0.00 0.00 0.00 0.00 0.00 0.00 0.00 0.00 0.00 0.00 0.00 0.00
0.00 0.00 0.00 0.00 0.00 0.00 0.00 0.00 0.00 0.00 0.00 0.00 0.00 0.00 0.00 0.00 0.00 0.00 0.00 0.00 0.00 0.00 0.00 0.00 0.00 0.00 0.00 0.00 0.00 0.00 0.00 0.00 0.00 0.00 0.00 0.00 0.00 0.00 0.00 0.00 0.00 0.00 0.00 0.00
0.00 0.00 0.00 0.00 0.00 0.00 0.00 0.00 0.00 0.00 0.00 0.00 0.00 0.00 0.00 0.00 0.00 0.00 0.00 0.00 0.00 0.00 0.00 0.00 0.00 0.00 0.00 0.00 0.00 0.00 0.00 0.00 0.00 0.00 0.00 0.00 0.00 0.00 0.00 0.00 0.00 0.00 0.00 0.00
0.00 0.00 0.00 0.00 0.00 0.00 0.00 0.00 0.00 0.00 0.00 0.00 0.00 0.00 0.00 0.00 0.00 0.00 0.00 0.00 0.00 0.00 0.00 0.00 0.00 0.00 0.00 0.00 0.00 0.00 0.00 0.00 0.00 0.00 0.00 0.00 0.00 0.00 0.00 0.00 0.00 0.00 0.00 0.00
0.00 0.00 0.00 0.00 0.00 0.00 0.00 0.00 0.00 0.00 0.00 0.00 0.00 0.00 0.00 0.00 0.00 0.00 0.00 0.00 0.00 0.00 0.00 0.00 0.00 0.00 0.00 0.00 0.00 0.00 0.00 0.00 0.00 0.00 0.00 0.00 0.00 0.00 0.00 0.00 0.00 0.00 0.00 0.00
0.00 0.00 0.00 0.00 0.00 0.00 0.00 0.00 0.00 0.00 0.00 0.00 0.00 0.00 0.00 0.00 0.00 0.00 0.00 0.00 0.00 0.00 0.00 0.00 0.00 0.00 0.00 0.00 0.00 0.00 0.00 0.00 0.00 0.00 0.00 0.00 0.00 0.00 0.00 0.00 0.00 0.00 0.00 0.00
0.00 0.00 0.00 0.00 0.00 0.00 0.00 0.00 0.00 0.00 0.00 0.00 0.00 0.00 0.00 0.00 0.00 0.00 0.00 0.00 0.00 0.00 0.00 0.00 0.00 0.00 0.00 0.00 0.00 0.00 0.00 0.00 0.00 0.00 0.00 0.00 0.00 0.00 0.00 0.00 0.00 0.00 0.00 0.00
0.00 0.00 0.00 0.00 0.00 0.00 0.00 0.00 0.00 0.00 0.00 0.00 0.00 0.00 0.00 0.00 0.00 0.00 0.00 0.00 0.00 0.00 0.00 0.00 0.00 0.00 0.00 0.00 0.00 0.00 0.00 0.00 0.00 0.00 0.00 0.00 0.00 0.00 0.00 0.00 0.00 0.00 0.00 0.00
0.00 0.00 0.00 0.00 0.00 0.00 0.00 0.00 0.00 0.00 0.00 0.00 0.00 0.00 0.00 0.00 0.00 0.00 0.00 0.00 0.00 0.00 0.00 0.00 0.00 0.00 0.00 0.00 0.00 0.00 0.00 0.00 0.00 0.00 0.00 0.00 0.00 0.00 0.00 0.00 0.00 0.00 0.00 0.00
MSLP
1009.13 1009.37 1009.18 1009.46 1009.82 1009.81 1009.49 1009.06 1008.43 1008.06 1008.22 1008.77 1008.53 1008.90 1009.56 1010.00 1010.34 1010.66 1010.61 1010.44 1009.53 1008.29 1007.18 1006.33 1005.82 1006.10 1006.41 1006.82 1007.75 1008.51 1010.01 1010.63 1011.18 1011.15 1012.01 1012.92 1013.79 1014.16 1014.29 1014.31 1014.66 1015.38 1016.30 1016.92
1008.88 1009.19 1009.33 1009.54 1009.58 1009.39 1009.22 1008.87 1008.68 1008.63 1008.42 1008.55 1008.75 1009.05 1009.96 1010.74 1011.49 1011.86 1011.69 1011.23 1010.58 1009.47 1008.24 1006.99 1006.43 1006.36 1006.71 1007.19 1008.01 1009.20 1010.06 1010.52 1009.56 1012.22 1011.94 1012.63 1013.29 1013.90 1014.12 1014.07 1014.70 1015.43 1016.20 1017.09
1009.14 1009.13 1009.27 1009.42 1009.34 1009.33 1009.42 1009.57 1009.60 1009.46 1008.80 1008.49 1009.02 1009.54 1010.30 1011.35 1012.03 1012.22 1012.10 1012.11 1011.52 1010.82 1009.69 1008.37 1007.36 1006.77 1006.87 1007.10 1008.33 1009.48 1010.03 1010.74 1011.40 1012.70 1012.29 1013.00 1013.45 1013.69 1014.35 1014.81 1015.22 1015.83 1016.32 1017.10
1009.15 1009.17 1009.41 1009.50 1009.28 1009.80 1009.65 1009.60 1009.70 1009.53 1009.34 1009.12 1009.23 1010.23 1011.30 1011.88 1012.28 1012.40 1012.78 1012.64 1012.24 1011.44 1010.66 1009.65 1008.43 1007.28 1007.14 1007.24 1008.25 1009.37 1010.37 1010.82 1011.54 1012.44 1013.00 1013.34 1013.64 1014.37 1015.25 1015.75 1016.16 1016.73 1016.79 1017.57
1009.37 1009.50 1009.72 1009.70 1009.76 1009.99 1009.80 1009.67 1009.52 1009.87 1010.04 1009.82 1009.94 1010.57 1011.30 1011.61 1012.59 1012.94 1013.01 1012.92 1012.76 1012.32 1011.73 1010.58 1009.50 1008.29 1007.13 1007.23 1007.84 1009.46 1010.42 1011.38 1012.04 1013.67 1012.31 1012.86 1014.07 1014.54 1016.01 1016.68 1017.34 1017.53 1018.20 1018.52
1009.61 1009.84 1010.02 1010.04 1009.87 1009.62 1009.72 1009.25 1008.80 1009.95 1010.43 1010.72 1010.77 1011.50 1011.78 1012.61 1013.31 1013.36 1013.31 1013.34 1013.12 1012.71 1012.07 1011.19 1010.04 1008.34 1007.34 1007.85 1008.70 1010.06 1010.99 1011.36 1011.99 1013.37 1012.72 1012.76 1014.64 1015.25 1016.30 1017.34 1017.88 1018.50 1019.07 1019.59
1009.22 1009.61 1009.92 1010.22 1009.87 1009.69 1009.91 1009.98 1010.54 1011.02 1011.03 1011.14 1011.10 1011.54 1012.48 1012.64 1013.08 1013.80 1013.82 1013.78 1013.57 1013.10 1012.31 1011.37 1009.38 1008.27 1008.59 1009.16 1009.70 1010.90 1011.52 1012.37 1012.47 1012.27 1013.56 1014.22 1015.79 1015.44 1015.40 1016.49 1016.97 1018.22 1019.14 1020.19
1009.76 1009.95 1010.06 1010.28 1010.42 1010.56 1010.55 1010.96 1012.32 1013.04 1012.83 1012.32 1011.58 1011.72 1012.05 1012.16 1012.85 1013.57 1014.06 1014.16 1013.91 1013.34 1012.83 1012.06 1010.86 1010.45 1010.30 1010.67 1010.88 1011.84 1012.48 1013.11 1013.65 1013.99 1014.48 1014.19 1016.14 1016.30 1016.89 1016.54 1017.40 1018.13 1018.78 1019.46
1010.46 1010.22 1010.43 1010.57 1010.65 1010.70 1010.67 1011.39 1012.64 1013.25 1013.18 1012.99 1011.56 1011.83 1011.92 1011.86 1012.56 1013.31 1014.22 1014.38 1014.34 1014.26 1013.87 1013.09 1012.31 1011.86 1011.51 1011.69 1012.27 1012.65 1013.32 1013.96 1014.32 1014.67 1015.40 1015.58 1016.82 1016.62 1017.09 1017.25 1017.81 1018.52 1018.77 1019.23
1011.26 1011.01 1010.22 1010.49 1010.92 1010.91 1010.86 1011.48 1012.33 1012.92 1013.36 1012.52 1011.34 1011.56 1012.09 1012.24 1012.87 1013.57 1014.42 1015.01 1015.17 1015.12 1014.76 1014.19 1013.80 1013.30 1012.78 1012.84 1013.17 1013.64 1013.93 1014.51 1014.78 1015.15 1015.58 1015.92 1016.21 1016.96 1017.43 1017.90 1017.83 1018.38 1018.90 1019.13
1011.64 1011.51 1010.85 1010.56 1010.61 1010.58 1010.98 1011.00 1011.44 1012.09 1012.65 1012.75 1012.09 1012.27 1011.96 1012.62 1013.20 1014.08 1014.88 1015.56 1016.02 1015.84 1015.74 1015.36 1014.94 1014.57 1014.42 1014.17 1014.30 1014.72 1015.16 1015.33 1015.74 1016.16 1016.69 1017.06 1017.87 1017.87 1018.13 1018.43 1018.14 1018.46 1019.03 1019.44
1012.22 1012.17 1011.22 1010.60 1010.57 1010.81 1010.97 1011.15 1011.38 1011.98 1012.50 1012.47 1011.81 1012.16 1011.97 1012.55 1013.27 1014.07 1015.16 1015.95 1016.11 1016.30 1016.06 1016.01 1015.83 1015.76 1015.60 1015.57 1015.54 1015.86 1016.21 1016.53 1016.98 1017.13 1017.64 1017.98 1018.45 1018.76 1018.95 1018.64 1018.56 1018.78 1019.54 1020.06
1012.45 1012.25 1011.55 1011.23 1011.28 1011.04 1010.87 1010.99 1011.55 1011.79 1012.06 1012.06 1011.64 1011.78 1011.71 1012.26 1013.31 1014.01 1014.99 1015.92 1016.11 1016.24 1016.26 1016.36 1016.36 1016.42 1016.45 1016.48 1016.66 1016.94 1017.23 1017.57 1017.80 1017.91 1018.07 1018.22 1018.65 1019.11 1018.74 1018.86 1018.90 1019.19 1020.17 1020.38
1012.91 1012.52 1011.86 1011.15 1010.57 1010.38 1010.46 1010.54 1011.04 1011.63 1011.81 1011.27 1011.26 1011.19 1011.38 1011.99 1013.05 1014.00 1014.85 1015.55 1015.93 1016.09 1016.39 1016.58 1016.80 1016.94 1016.95 1017.02 1017.28 1017.57 1017.71 1017.92 1018.21 1018.31 1018.62 1018.94 1019.15 1018.95 1018.66 1019.22 1019.53 1019.80 1020.74 1020.44
1013.03 1012.59 1011.78 1011.04 1010.43 1010.32 1010.06 1010.26 1010.59 1011.02 1011.00 1011.29 1010.65 1010.89 1010.86 1011.40 1012.40 1013.56 1014.35 1015.06 1015.48 1015.83 1016.04 1016.44 1016.93 1017.23 1017.40 1017.48 1017.74 1018.02 1018.22 1018.42 1018.63 1019.02 1019.34 1019.49 1019.58 1019.28 1019.60 1020.33 1020.54 1020.78 1021.03 1021.31
1012.89 1012.71 1012.10 1011.16 1010.14 1009.80 1009.78 1009.69 1009.89 1010.30 1010.38 1010.35 1010.49 1010.45 1010.27 1011.11 1012.14 1013.10 1013.94 1014.58 1015.20 1015.57 1015.82 1016.23 1016.67 1017.23 1017.76 1018.11 1018.23 1018.34 1018.57 1018.82 1019.05 1019.34 1019.57 1019.77 1020.02 1020.28 1020.93 1021.37 1021.07 1021.22 1021.63 1022.13
1012.60 1012.71 1012.30 1011.22 1010.16 1009.77 1009.39 1008.55 1008.75 1009.23 1009.48 1009.69 1010.00 1010.28 1010.52 1011.19 1011.93 1012.60 1013.36 1014.05 1014.84 1015.49 1015.91 1016.31 1016.71 1017.12 1017.56 1017.90 1018.08 1018.52 1018.78 1019.02 1019.40 1019.76 1020.21 1020.42 1020.64 1020.97 1021.22 1021.13 1021.40 1022.05 1022.46 1022.80
1012.48 1012.70 1012.78 1012.02 1011.05 1009.87 1008.63 1008.20 1008.32 1008.24 1008.60 1008.95 1009.42 1009.88 1010.34 1010.85 1011.42 1012.02 1012.76 1013.54 1014.37 1015.06 1015.81 1016.35 1016.72 1017.21 1017.62 1017.88 1018.22 1018.53 1018.90 1019.33 1019.73 1020.11 1020.45 1020.68 1021.01 1021.31 1021.44 1021.89 1022.41 1022.77 1023.11 1023.37
1012.73 1012.71 1012.89 1012.58 1011.21 1009.34 1008.71 1008.51 1008.37 1008.40 1008.33 1008.26 1008.79 1009.52 1010.22 1010.72 1011.31 1011.82 1012.13 1012.80 1013.65 1014.46 1015.15 1015.95 1016.89 1017.39 1017.69 1018.08 1018.42 1018.80 1019.22 1019.64 1020.06 1020.48 1020.93 1021.21 1021.49 1021.94 1022.37 1022.98 1023.25 1023.39 1023.72 1024.04
1013.10 1013.00 1013.06 1012.61 1011.89 1009.97 1008.50 1008.43 1008.42 1008.49 1008.35 1007.44 1008.10 1009.03 1009.96 1010.81 1011.63 1011.47 1011.62 1012.30 1013.19 1014.02 1014.80 1015.66 1016.37 1017.02 1017.87 1018.39 1018.78 1019.15 1019.54 1019.92 1020.43 1020.86 1021.26 1021.49 1021.84 1022.40 1023.00 1023.42 1023.78 1023.88 1024.10 1024.35
1012.81 1013.16 1012.78 1012.37 1011.52 1009.53 1008.01 1008.37 1008.70 1008.85 1008.42 1007.79 1007.97 1008.61 1009.61 1010.66 1010.93 1010.38 1011.00 1011.94 1012.67 1013.65 1014.54 1015.29 1016.14 1017.00 1017.45 1017.96 1018.61 1019.32 1019.79 1020.34 1020.68 1021.06 1021.50 1021.92 1022.33 1022.75 1023.20 1023.56 1023.88 1024.18 1024.38 1024.54
1010.29 1011.15 1011.45 1011.44 1010.62 1009.18 1007.64 1008.46 1008.57 1007.72 1007.62 1007.77 1007.95 1008.41 1009.30 1009.99 1010.59 1010.90 1011.35 1012.04 1012.60 1013.45 1014.36 1015.15 1016.06 1016.77 1017.29 1017.96 1018.41 1019.08 1019.83 1020.28 1020.82 1021.36 1021.83 1022.31 1022.75 1023.03 1023.43 1023.78 1024.00 1024.27 1024.57 1024.89
1008.39 1007.70 1008.26 1008.43 1007.63 1006.66 1006.68 1006.58 1006.91 1006.91 1007.42 1007.77 1008.01 1008.42 1008.98 1009.72 1010.36 1010.79 1011.37 1011.99 1012.58 1013.14 1014.06 1014.97 1015.84 1016.55 1017.01 1017.68 1018.29 1018.98 1019.63 1020.10 1020.88 1021.55 1022.17 1022.52 1022.88 1023.32 1023.57 1023.98 1024.20 1024.45 1024.65 1025.09
1006.66 1006.32 1006.72 1006.81 1006.30 1006.30 1006.31 1006.36 1006.57 1006.81 1007.07 1007.41 1007.78 1008.25 1008.78 1009.48 1009.95 1010.56 1011.20 1011.80 1012.42 1013.09 1013.75 1014.66 1015.67 1016.34 1016.93 1017.32 1017.97 1018.66 1019.35 1019.98 1020.76 1021.60 1022.26 1022.66 1023.17 1023.48 1023.76 1023.97 1024.29 1024.56 1024.90 1025.24
1004.87 1005.35 1005.68 1005.64 1005.46 1005.58 1005.83 1006.01 1006.27 1006.74 1007.06 1007.34 1007.61 1008.01 1008.53 1009.12 1009.57 1010.07 1010.75 1011.49 1011.90 1012.58 1013.37 1014.12 1015.13 1015.97 1016.62 1017.03 1017.66 1018.29 1019.08 1019.85 1020.72 1021.37 1022.10 1022.70 1023.21 1023.57 1023.92 1024.22 1024.52 1024.87 1025.14 1025.29
1003.29 1003.84 1004.39 1003.85 1003.71 1004.26 1004.72 1004.95 1005.50 1006.36 1006.79 1007.01 1007.39 1007.75 1008.12 1008.60 1009.09 1009.56 1010.08 1010.52 1011.32 1012.09 1012.84 1013.69 1014.54 1015.45 1016.16 1016.84 1017.51 1018.18 1018.80 1019.65 1020.46 1021.17 1021.90 1022.61 1023.21 1023.64 1023.89 1024.41 1024.82 1024.79 1025.01 1025.25
Thickness
5693 5672 5665 5666 5665 5661 5657 5652 5652 5656 5660 5644 5645 5638 5633 5630 5621 5615 5615 5615 5624 5637 5653 5665 5677 5681 5687 5691 5689 5690 5683 5686 5676 5684 5686 5682 5680 5681 5683 5686 5684 5682 5675 5672
5683 5666 5676 5675 5670 5665 5660 5653 5649 5651 5658 5648 5640 5633 5623 5617 5607 5602 5601 5603 5608 5619 5632 5650 5664 5672 5675 5678 5677 5671 5674 5675 5667 5665 5680 5680 5678 5675 5677 5681 5680 5676 5670 5663
5669 5676 5680 5673 5667 5658 5653 5643 5636 5633 5646 5651 5637 5618 5614 5608 5598 5596 5598 5593 5596 5601 5613 5629 5645 5660 5665 5671 5664 5658 5665 5666 5663 5658 5671 5669 5671 5674 5670 5669 5669 5666 5662 5657
5677 5684 5673 5667 5665 5656 5639 5652 5646 5642 5636 5620 5640 5596 5600 5600 5592 5587 5581 5581 5584 5589 5597 5610 5629 5649 5656 5662 5658 5653 5655 5664 5662 5657 5655 5658 5659 5660 5655 5655 5654 5651 5652 5645
5672 5670 5663 5660 5659 5658 5648 5654 5650 5642 5631 5631 5624 5605 5604 5601 5585 5581 5578 5575 5571 5576 5584 5596 5613 5634 5650 5655 5657 5649 5649 5650 5644 5637 5653 5655 5651 5652 5642 5641 5637 5637 5633 5630
5673 5678 5669 5662 5664 5665 5664 5660 5663 5645 5632 5607 5618 5604 5594 5584 5576 5578 5575 5565 5561 5565 5577 5590 5606 5628 5646 5649 5651 5640 5638 5639 5641 5630 5634 5638 5631 5639 5635 5629 5627 5622 5618 5612
5677 5669 5671 5667 5657 5665 5656 5642 5614 5609 5605 5604 5628 5603 5586 5594 5588 5575 5569 5562 5560 5564 5578 5590 5614 5631 5635 5636 5638 5634 5629 5624 5629 5634 5628 5626 5616 5628 5637 5630 5629 5618 5609 5600
5656 5648 5663 5664 5654 5643 5644 5638 5597 5579 5586 5592 5622 5593 5597 5606 5593 5583 5572 5566 5565 5571 5578 5589 5602 5613 5621 5621 5628 5627 5623 5622 5625 5626 5625 5627 5616 5619 5617 5625 5617 5610 5605 5598
5651 5653 5662 5659 5657 5653 5644 5624 5627 5602 5606 5592 5608 5608 5609 5609 5601 5590 5576 5572 5570 5569 5574 5587 5595 5605 5615 5618 5617 5623 5616 5616 5620 5620 5616 5615 5606 5613 5611 5611 5609 5601 5599 5595
5656 5637 5665 5659 5654 5652 5647 5645 5618 5612 5574 5591 5620 5610 5595 5599 5597 5593 5578 5571 5571 5571 5576 5584 5589 5598 5608 5611 5611 5612 5614 5609 5613 5613 5613 5614 5614 5609 5605 5602 5606 5600 5593 5591
5657 5648 5650 5656 5647 5644 5639 5639 5636 5626 5617 5596 5596 5594 5615 5603 5600 5590 5584 5573 5568 5572 5574 5580 5586 5591 5596 5602 5603 5602 5601 5602 5602 5601 5599 5600 5594 5596 5595 5594 5597 5591 5586 5582
5649 5641 5638 5652 5654 5651 5644 5637 5635 5612 5607 5608 5610 5597 5621 5612 5605 5596 5586 5576 5576 5573 5579 5580 5584 5586 5590 5591 5594 5594 5592 5591 5590 5592 5589 5588 5586 5583 5582 5584 5586 5584 5578 5574
5649 5639 5631 5634 5639 5643 5636 5638 5633 5629 5621 5606 5599 5601 5625 5617 5606 5603 5590 5581 5581 5581 5584 5584 5583 5583 5584 5586 5585 5584 5583 5581 5581 5581 5580 5580 5578 5577 5580 5581 5581 5579 5572 5569
5643 5639 5636 5629 5639 5647 5636 5640 5636 5625 5608 5618 5615 5619 5621 5619 5609 5602 5594 5586 5583 5584 5583 5584 5583 5582 5583 5582 5581 5579 5579 5578 5576 5576 5573 5571 5572 5574 5577 5574 5572 5570 5563 5564
5639 5633 5644 5646 5649 5645 5641 5636 5633 5623 5624 5614 5626 5622 5630 5624 5616 5606 5602 5596 5592 5589 5588 5586 5580 5579 5579 5579 5576 5573 5572 5572 5571 5569 5568 5567 5565 5568 5566 5560 5558 5556 5554 5553
5638 5629 5637 5635 5650 5651 5639 5641 5638 5631 5630 5629 5627 5623 5636 5628 5621 5612 5606 5601 5595 5593 5593 5590 5586 5580 5575 5572 5572 5571 5569 5567 5566 5565 5562 5561 5558 5555 5550 5547 5549 5548 5545 5541
5633 5628 5629 5629 5649 5645 5633 5646 5644 5639 5640 5635 5620 5628 5632 5625 5620 5615 5610 5606 5598 5593 5591 5589 5587 5582 5579 5576 5574 5570 5568 5565 5562 5558 5554 5551 5549 5547 5545 5544 5542 5537 5533 5529
5629 5628 5624 5613 5627 5621 5647 5658 5653 5651 5648 5642 5638 5634 5631 5628 5626 5622 5616 5608 5602 5597 5590 5587 5584 5581 5577 5575 5572 5569 5565 5561 5557 5553 5550 5546 5542 5539 5537 5532 5527 5524 5521 5519
5624 5624 5615 5605 5616 5642 5647 5646 5643 5638 5641 5647 5641 5635 5632 5630 5626 5621 5621 5616 5607 5600 5595 5588 5579 5575 5573 5570 5567 5563 5559 5554 5550 5545 5541 5537 5534 5529 5524 5519 5514 5513 5510 5507
5613 5615 5612 5613 5603 5611 5645 5647 5651 5647 5618 5656 5647 5637 5628 5621 5600 5610 5621 5618 5609 5602 5596 5588 5582 5576 5567 5563 5560 5556 5552 5548 5543 5538 5534 5530 5525 5519 5513 5508 5505 5505 5502 5500
5598 5596 5596 5597 5600 5626 5651 5644 5644 5619 5627 5649 5650 5640 5629 5615 5616 5628 5624 5617 5611 5602 5595 5589 5581 5572 5568 5564 5558 5550 5545 5540 5536 5532 5527 5522 5517 5512 5507 5503 5500 5496 5493 5491
5611 5598 5594 5601 5601 5604 5650 5637 5627 5640 5647 5644 5645 5639 5629 5626 5621 5619 5615 5610 5606 5598 5592 5586 5578 5572 5566 5560 5555 5548 5540 5535 5530 5524 5519 5513 5508 5505 5500 5496 5494 5491 5487 5484
5617 5634 5621 5624 5626 5653 5650 5654 5649 5651 5642 5640 5638 5636 5630 5623 5618 5616 5609 5604 5600 5597 5589 5581 5574 5569 5563 5558 5552 5544 5537 5533 5525 5519 5512 5508 5503 5497 5494 5490 5487 5484 5481 5476
5632 5644 5630 5634 5647 5646 5644 5649 5645 5645 5643 5640 5638 5632 5626 5620 5617 5610 5606 5601 5595 5591 5586 5579 5570 5563 5557 5553 5549 5541 5534 5528 5521 5513 5507 5501 5496 5491 5487 5485 5482 5478 5473 5468
5633 5636 5634 5636 5646 5644 5641 5638 5640 5638 5635 5634 5634 5630 5623 5617 5614 5610 5602 5597 5593 5589 5583 5577 5569 5561 5553 5548 5544 5537 5529 5523 5516 5509 5502 5497 5490 5485 5480 5476 5472 5468 5463 5460
5632 5635 5630 5636 5650 5640 5640 5643 5638 5630 5629 5626 5625 5623 5621 5616 5610 5609 5605 5600 5593 5586 5580 5573 5566 5556 5549 5542 5538 5530 5524 5517 5511 5504 5497 5491 5485 5480 5475 5469 5462 5462 5458 5453